• In Netherlands
  • List of Countries
  • For 7 days
  • Water Temperature
  • Satellite Maps
  • Weather Map
  • Weather Widgets
  • user-avatar
    Login

    Hourly Weather Parakou

    Today, 25 September, Monday

    Time Temperature Precipitation Wind Pressure Humidity
    00:00 +25°C° 0 mm 1 mps 728 mmHg 84%
    01:00 +25°C° 0 mm 1 mps 728 mmHg 84%
    02:00 +25°C° 0 mm 1 mps 727 mmHg 85%
    03:00 +25°C° 0 mm 1 mps 727 mmHg 86%
    04:00 +25°C° 0 mm 1 mps 727 mmHg 88%
    05:00 +25°C° 0 mm 1 mps 727 mmHg 89%
    06:00 +25°C° 0 mm 1 mps 727 mmHg 91%
    07:00 +25°C° 0 mm 2 mps 728 mmHg 89%
    08:00 +26°C° 0 mm 2 mps 728 mmHg 87%
    09:00 +27°C° 0 mm 2 mps 728 mmHg 85%
    10:00 +28°C° 0 mm 2 mps 728 mmHg 82%
    11:00 +28°C° 0 mm 2 mps 728 mmHg 79%
    12:00 +29°C° 0 mm 2 mps 728 mmHg 76%
    13:00 +29°C° 0 mm 1 mps 727 mmHg 75%
    14:00 +30°C° 0 mm 1 mps 726 mmHg 74%
    15:00 +30°C° 0 mm 1 mps 726 mmHg 73%
    16:00 +29°C° 0.1 mm 1 mps 726 mmHg 77%
    17:00 +28°C° 0.1 mm 1 mps 726 mmHg 82%
    18:00 +27°C° 0.1 mm 1 mps 726 mmHg 86%
    19:00 +26°C° 0.3 mm 1 mps 726 mmHg 87%
    20:00 +26°C° 0.3 mm 1 mps 727 mmHg 87%
    21:00 +26°C° 0.3 mm 1 mps 727 mmHg 88%
    22:00 +25°C° 0.2 mm 1 mps 727 mmHg 89%
    23:00 +25°C° 0.2 mm 1 mps 727 mmHg 91%

    Tomorrow, 26 September, Tuesday

    Time Temperature Precipitation Wind Pressure Humidity
    00:00 +25°C° 0.2 mm 2 mps 727 mmHg 92%
    01:00 +25°C° 0 mm 2 mps 726 mmHg 94%
    02:00 +25°C° 0 mm 2 mps 726 mmHg 95%
    03:00 +24°C° 0 mm 2 mps 725 mmHg 96%
    04:00 +24°C° 0 mm 2 mps 726 mmHg 96%
    05:00 +24°C° 0 mm 2 mps 726 mmHg 96%
    06:00 +24°C° 0 mm 2 mps 726 mmHg 95%
    07:00 +25°C° 0 mm 2 mps 727 mmHg 91%
    08:00 +26°C° 0 mm 2 mps 727 mmHg 87%
    09:00 +27°C° 0 mm 2 mps 728 mmHg 83%
    10:00 +29°C° 0 mm 2 mps 727 mmHg 76%
    11:00 +31°C° 0 mm 2 mps 727 mmHg 68%
    12:00 +34°C° 0 mm 2 mps 727 mmHg 60%
    13:00 +34°C° 0.1 mm 2 mps 726 mmHg 60%
    14:00 +34°C° 0.1 mm 2 mps 725 mmHg 60%
    15:00 +34°C° 0.1 mm 2 mps 725 mmHg 61%
    16:00 +31°C° 0.5 mm 2 mps 725 mmHg 68%
    17:00 +29°C° 0.5 mm 1 mps 725 mmHg 76%
    18:00 +28°C° 0.5 mm 1 mps 725 mmHg 83%
    19:00 +27°C° 0.8 mm 1 mps 726 mmHg 86%
    20:00 +26°C° 0.8 mm 2 mps 727 mmHg 89%
    21:00 +26°C° 0.8 mm 2 mps 728 mmHg 92%
    22:00 +25°C° 0.5 mm 2 mps 727 mmHg 93%
    23:00 +25°C° 0.5 mm 2 mps 727 mmHg 94%

    Day after tomorrow, 27 September, Wednesday

    Time Temperature Precipitation Wind Pressure Humidity
    00:00 +25°C° 0.5 mm 2 mps 727 mmHg 96%
    01:00 +25°C° 0 mm 2 mps 727 mmHg 96%
    02:00 +25°C° 0 mm 2 mps 726 mmHg 97%
    03:00 +24°C° 0 mm 2 mps 726 mmHg 97%
    04:00 +24°C° 0 mm 2 mps 726 mmHg 97%
    05:00 +24°C° 0 mm 2 mps 727 mmHg 97%
    06:00 +24°C° 0 mm 3 mps 727 mmHg 96%
    07:00 +25°C° 0 mm 2 mps 727 mmHg 94%
    08:00 +26°C° 0 mm 2 mps 728 mmHg 91%
    09:00 +27°C° 0 mm 2 mps 728 mmHg 88%
    10:00 +28°C° 0 mm 2 mps 728 mmHg 80%
    11:00 +30°C° 0 mm 2 mps 727 mmHg 72%
    12:00 +32°C° 0 mm 2 mps 727 mmHg 63%
    13:00 +32°C° 0.2 mm 1 mps 726 mmHg 63%
    14:00 +33°C° 0.2 mm 1 mps 726 mmHg 62%
    15:00 +33°C° 0.2 mm 1 mps 725 mmHg 62%
    16:00 +31°C° 0.5 mm 1 mps 725 mmHg 69%
    17:00 +29°C° 0.5 mm 1 mps 726 mmHg 77%
    18:00 +27°C° 0.5 mm 1 mps 726 mmHg 85%
    19:00 +27°C° 0.1 mm 1 mps 727 mmHg 86%
    20:00 +27°C° 0.1 mm 1 mps 727 mmHg 88%
    21:00 +26°C° 0.1 mm 1 mps 728 mmHg 90%
    22:00 +26°C° 0 mm 1 mps 728 mmHg 92%
    23:00 +25°C° 0 mm 1 mps 728 mmHg 93%

    28 September, Thursday

    Time Temperature Precipitation Wind Pressure Humidity
    00:00 +25°C° 0 mm 2 mps 727 mmHg 95%
    01:00 +25°C° 0 mm 2 mps 727 mmHg 96%
    02:00 +25°C° 0 mm 2 mps 727 mmHg 96%
    03:00 +24°C° 0 mm 2 mps 726 mmHg 97%
    04:00 +24°C° 0 mm 2 mps 727 mmHg 97%
    05:00 +24°C° 0 mm 2 mps 727 mmHg 97%
    06:00 +24°C° 0 mm 2 mps 727 mmHg 97%
    07:00 +25°C° 0 mm 2 mps 728 mmHg 94%
    08:00 +25°C° 0 mm 2 mps 729 mmHg 92%
    09:00 +26°C° 0 mm 2 mps 729 mmHg 89%
    10:00 +27°C° 0 mm 2 mps 729 mmHg 84%
    11:00 +28°C° 0 mm 2 mps 728 mmHg 79%
    12:00 +30°C° 0 mm 2 mps 728 mmHg 74%
    13:00 +30°C° 0.1 mm 1 mps 727 mmHg 70%
    14:00 +31°C° 0.1 mm 1 mps 727 mmHg 67%
    15:00 +32°C° 0.1 mm 1 mps 726 mmHg 63%
    16:00 +31°C° 0 mm 1 mps 727 mmHg 69%
    17:00 +29°C° 0 mm 1 mps 727 mmHg 74%
    18:00 +28°C° 0 mm 1 mps 727 mmHg 80%
    19:00 +27°C° 0.5 mm 1 mps 728 mmHg 83%
    20:00 +27°C° 0.5 mm 1 mps 728 mmHg 86%
    21:00 +26°C° 0.5 mm 1 mps 729 mmHg 90%
    22:00 +26°C° 0 mm 1 mps 728 mmHg 91%
    23:00 +25°C° 0 mm 1 mps 728 mmHg 92%

    29 September, Friday

    Time Temperature Precipitation Wind Pressure Humidity
    00:00 +25°C° 0 mm 2 mps 728 mmHg 93%
    01:00 +25°C° 0 mm 2 mps 728 mmHg 93%
    02:00 +25°C° 0 mm 2 mps 727 mmHg 94%
    03:00 +24°C° 0 mm 2 mps 727 mmHg 94%
    04:00 +24°C° 0 mm 2 mps 727 mmHg 94%
    05:00 +24°C° 0 mm 2 mps 728 mmHg 94%
    06:00 +24°C° 0 mm 2 mps 728 mmHg 94%
    07:00 +25°C° 0 mm 2 mps 728 mmHg 91%
    08:00 +25°C° 0 mm 2 mps 728 mmHg 88%
    09:00 +26°C° 0 mm 3 mps 729 mmHg 85%
    10:00 +27°C° 0 mm 3 mps 728 mmHg 82%
    11:00 +28°C° 0 mm 3 mps 728 mmHg 79%
    12:00 +28°C° 0 mm 3 mps 727 mmHg 76%
    13:00 +29°C° 0 mm 2 mps 727 mmHg 73%
    14:00 +30°C° 0 mm 2 mps 726 mmHg 71%
    15:00 +30°C° 0 mm 2 mps 726 mmHg 68%
    16:00 +29°C° 0 mm 1 mps 726 mmHg 72%
    17:00 +28°C° 0 mm 1 mps 726 mmHg 77%
    18:00 +27°C° 0 mm 1 mps 727 mmHg 81%
    19:00 +26°C° 0.1 mm 1 mps 727 mmHg 83%
    20:00 +26°C° 0.1 mm 1 mps 728 mmHg 85%
    21:00 +26°C° 0.1 mm 1 mps 728 mmHg 87%
    22:00 +25°C° 0.1 mm 1 mps 728 mmHg 89%
    23:00 +25°C° 0.1 mm 1 mps 728 mmHg 91%

    30 September, Saturday

    Time Temperature Precipitation Wind Pressure Humidity
    00:00 +25°C° 0.1 mm 2 mps 727 mmHg 93%
    01:00 +24°C° 0 mm 2 mps 727 mmHg 94%
    02:00 +24°C° 0 mm 2 mps 726 mmHg 94%
    03:00 +24°C° 0 mm 2 mps 726 mmHg 95%
    04:00 +24°C° 0 mm 2 mps 726 mmHg 95%
    05:00 +24°C° 0 mm 2 mps 727 mmHg 95%
    06:00 +24°C° 0 mm 2 mps 727 mmHg 95%
    07:00 +25°C° 0 mm 2 mps 727 mmHg 91%
    08:00 +26°C° 0 mm 3 mps 727 mmHg 87%
    09:00 +27°C° 0 mm 3 mps 728 mmHg 83%
    10:00 +29°C° 0 mm 3 mps 727 mmHg 75%
    11:00 +31°C° 0 mm 2 mps 727 mmHg 67%
    12:00 +34°C° 0 mm 2 mps 726 mmHg 60%
    13:00 +34°C° 0 mm 2 mps 726 mmHg 58%
    14:00 +34°C° 0 mm 1 mps 725 mmHg 57%
    15:00 +34°C° 0 mm 1 mps 725 mmHg 55%
    16:00 +32°C° 0 mm 1 mps 725 mmHg 60%
    17:00 +31°C° 0 mm 1 mps 725 mmHg 66%
    18:00 +30°C° 0 mm 1 mps 725 mmHg 71%
    19:00 +29°C° 0 mm 1 mps 726 mmHg 74%
    20:00 +28°C° 0 mm 2 mps 726 mmHg 77%
    21:00 +27°C° 0 mm 2 mps 726 mmHg 80%
    22:00 +27°C° 0 mm 2 mps 726 mmHg 83%
    23:00 +26°C° 0 mm 2 mps 726 mmHg 85%
    Show more